Regional Weather Roundup
Issued by NWS Little Rock, AR

Home | Current Version | Previous Version | Graphics & Text | Print | Product List | Glossary On
Versions: 1 2 3 4 5 6 7 8 9 10 11 12 13 14 15 16 17 18 19 20 21 22 23 24 25 26 27 28 29 30 31 32 33 34 35 36 37 38 39 40 41 42 43 44 45 46 47 48 49 50
000
ASUS44 KLZK 261305
RWRLZK

WEATHER ROUNDUP FOR ARKANSAS
NATIONAL WEATHER SERVICE LITTLE ROCK AR
800 AM CDT FRI MAY 26 2017

NOTE: "FAIR" INDICATES FEW OR NO CLOUDS BELOW 12,000 FEET WITH NO
SIGNIFICANT WEATHER AND/OR OBSTRUCTIONS TO VISIBILITY.

ARZ001-003-010-029-261400-
NORTHWEST ARKANSAS

CITY           SKY/WX    TMP DP  RH WIND       PRES   REMARKS
FAYETTEVILLE   PTSUNNY   70  62  76 S8        29.70F
FORT SMITH     SUNNY     71  61  70 SE3       29.71R
HARRISON       PTSUNNY   65  62  90 SE9       29.75F
BENTONVILLE    PTSUNNY   72  61  68 S9        29.70F
ROGERS         CLOUDY    70  63  78 E8        29.72R
SILOAM SPGS    MOSUNNY   72  59  64 S9        29.69S
HIGHFILL       PTSUNNY   72  63  73 S12       29.70R
SPRINGDALE     PTSUNNY   72  63  73 S9        29.73R
$$

ARZ004-005-016-261400-
NORTH CENTRAL ARKANSAS

CITY           SKY/WX    TMP DP  RH WIND       PRES   REMARKS
BATESVILLE     CLOUDY    70  63  78 S12G20    29.82R
FLIPPIN        PTSUNNY   66  57  72 SE6       29.75R
MTN HOME       PTSUNNY   68  61  78 SE7       29.78R
$$

ARZ040-041-261400-
WEST CENTRAL ARKANSAS

CITY           SKY/WX    TMP DP  RH WIND       PRES   REMARKS
MENA           CLOUDY    70  68  94 S7        29.80R
MOUNT IDA      CLOUDY    70  62  76 VRB7      29.78R
$$

ARZ009-017-025-026-028-261400-
NORTHEAST ARKANSAS

CITY           SKY/WX    TMP DP  RH WIND       PRES   REMARKS
JONESBORO      CLOUDY    70  62  76 S12       29.84S
NEWPORT        CLOUDY    70  64  81 S21       29.81F
WALNUT RIDGE   CLOUDY    70  61  73 S15G22    29.82R
BLYTHEVILLE    SUNNY     70  61  73 S16       29.87F
NW BLYTHEVILLE MOSUNNY   73  63  68 S12G22    29.86
$$

ARZ022-023-033-042-044-261400-
CENTRAL ARKANSAS

CITY           SKY/WX    TMP DP  RH WIND       PRES   REMARKS
LITTLE ROCK    PTSUNNY   70  65  84 S12G22    29.82R
N LITTLE ROCK    N/A     69  64  83 S9G20     29.82R
JACKSONVILLE   MOSUNNY   71  65  80 S9        29.81S
CONWAY           N/A     70  64  83 S15G22    29.78S
SEARCY         MOSUNNY   71  67  87 S10       29.84R
HOT SPRINGS    CLOUDY    69  65  86 S9G17     29.82R
RUSSELLVILLE   MOSUNNY   71  62  73 VRB5      29.78R
CLINTON        PTSUNNY   70  64  83 VRB7G14   29.80R
$$

ARZ036-261400-
EAST ARKANSAS

CITY           SKY/WX    TMP DP  RH WIND       PRES   REMARKS
WEST MEMPHIS   SUNNY     70  64  81 S17       29.87S
$$

ARZ050-053-066-070-073-261400-
SOUTHWEST ARKANSAS

CITY           SKY/WX    TMP DP  RH WIND       PRES   REMARKS
ARKADELPHIA    CLOUDY    68  65  90 S8G16     29.84R
CAMDEN         PTSUNNY   72  63  73 S12G18    29.85R
TEXARKANA      CLOUDY    69  67  93 S13       29.82R
EL DORADO      MOSUNNY   69  65  86 S14       29.87S
DE QUEEN       CLOUDY    69  65  86 CALM      29.79R
$$

ARZ056-057-069-261400-
SOUTHEAST ARKANSAS

CITY           SKY/WX    TMP DP  RH WIND       PRES   REMARKS
PINE BLUFF     MOSUNNY   69  64  84 S14       29.85S
STUTTGART      MOSUNNY   72  55  56 S20       29.86R
MONTICELLO     SUNNY     69  64  84 S10G21    29.89R

$$





USA.gov is the U.S. government's official web portal to all federal, state and local government web resources and services.